Location: Burleson Alternative School
(32.5290°N, 97.3406°W)
Time: 10:54:13
(UTC+00:00)

Vanguard 2 Rocket - Pass Details

Date: 13 November 2025
Orbit: 553 x 3287 km, 32.9° (Epoch: 07 December)

Event Time Altitude Azimuth Distance (km) Brightness Sun altitude
Exits shadow 08:55:11 14° 182° (S) 5,335 10.6 -51.0°
Drops below altitude 10° 08:58:09 10° 174° (S) 5,836 10.9 -50.4°
Sets 09:05:21 0° 159° (SSE) 7,141 11.6 -48.9°
